Regional Weather Roundup
Issued by NWS

Home | Current Version | Previous Version | Graphics & Text | Print | Product List | Glossary On
Versions: 1 2 3 4 5 6 7 8 9 10 11 12 13 14 15 16 17 18 19 20 21 22 23 24 25 26 27 28 29 30 31 32 33 34 35 36 37 38 39 40 41 42 43 44 45 46 47 48 49 50
000
ASUS43 KIND 240159
RWRIN

WEATHER ROUNDUP FOR INDIANA
NATIONAL WEATHER SERVICE INDIANAPOLIS IN
1000 PM EDT WED APR 23 2014

NOTE: "FAIR" INDICATES FEW OR NO CLOUDS BELOW 12,000 FEET WITH NO
SIGNIFICANT WEATHER AND/OR OBSTRUCTIONS TO VISIBILITY.

* - STATION DOES NOT REPORT WEATHER SUCH AS PRECIPITATION OR FOG.

+ - STATION NOT QUALITY CONTROLLED BY THE NATIONAL WEATHER SERVICE.
    USE DATA WITH CAUTION...ESPECIALLY DEWPOINT AND RELATIVE
    HUMIDITY OBSERVATIONS.

INZ001>003-010>013-019-020-240300-
NORTHWEST INDIANA

CITY           SKY/WX    TMP DP  RH WIND       PRES   REMARKS
GARY /AIRPORT/ CLOUDY    41  30  65 E8        30.13S
LA PORTE +     CLOUDY    40  27  59 N5        30.12R
MONTICELLO +   CLOUDY    53  36  51 N8        30.07R
VALPARAISO     CLOUDY    39  28  64 NE6       30.11S

$$

LMZ046-743>745-240300-
SOUTHERN LAKE MICHIGAN

STATION/POSITION TIME  TEMP WIND        PRES
                       AIR  DIR/SP/G
                 (UTC) (F)  (DEG/KT/KT) (MB)
MICHIGAN CITY    0100   38   10/  9/ 10   N/A

$$

INZ004-005-014>016-021>024-240300-
NORTH CENTRAL INDIANA

CITY           SKY/WX    TMP DP  RH WIND       PRES   REMARKS
GOSHEN         CLOUDY    51  33  50 N7        30.09R
SOUTH BEND     CLOUDY    44  28  53 N6        30.12S

$$

INZ006>009-017-018-025>027-240300-
NORTHEAST INDIANA

CITY           SKY/WX    TMP DP  RH WIND       PRES   REMARKS
ANGOLA *+      CLEAR     50  30  46 CALM      30.10R
FORT WAYNE     CLOUDY    51  28  41 NE6       30.10R

$$

INZ028-029-035-036-043>045-051>053-240300-
WEST CENTRAL INDIANA

CITY           SKY/WX    TMP DP  RH WIND       PRES   REMARKS
GREENCASTLE +  MOCLDY    54  32  43 NE5       30.08R
LAFAYETTE      CLOUDY    52  34  50 CALM      30.08R
TERRE HAUTE    CLOUDY    54  34  46 NE8       30.06S

$$

INZ030>032-037>040-046>048-054>057-064-065-240300-
CENTRAL INDIANA

CITY           SKY/WX    TMP DP  RH WIND       PRES   REMARKS
COLUMBUS       CLEAR     46  34  61 CALM      30.08R
INDIANAPOLIS   MOCLDY    54  29  38 NE7       30.07R
-EAGLE CREEK   MOCLDY    54  30  40 NE3       30.07R
KOKOMO *+      MOCLDY    52  32  46 NE5       30.09R
MT COMFORT *+  CLEAR     48  37  66 CALM      30.09R
SHELBYVILLE    PTCLDY    55  32  41 NE3       30.07R

$$

INZ033-034-041-042-049-050-058-059-240300-
EAST CENTRAL INDIANA

CITY           SKY/WX    TMP DP  RH WIND       PRES   REMARKS
MUNCIE           N/A     48  30  49 E6        30.08S

$$

INZ060-061-067>069-081>083-085>088-240300-
SOUTHWEST INDIANA

CITY           SKY/WX    TMP DP  RH WIND       PRES   REMARKS
EVANSVILLE     PTCLDY    58  37  45 N3        30.04R
HUNTINGBURG *+ CLEAR     55  32  41 E5        30.05R

$$

INZ062-063-066-070>080-084-089>092-240300-
SOUTH CENTRAL AND SOUTHEAST INDIANA

CITY           SKY/WX    TMP DP  RH WIND       PRES   REMARKS
BLOOMINGTON    PTCLDY    55  30  38 E5        30.07R

$$




USA.gov is the U.S. government's official web portal to all federal, state and local government web resources and services.